Temperature
16 16 16 16 16 16 16 16 16 14 14 14 14 14 14 14 14 14 14 14 13 13 14 13 13 13 13 13 13 13 13 13 13 13 13 13 13 13
16 16 16 16 16 16 16 16 15 15 14 14 13 13 13 13 13 13 13 13 13 13 13 13 13 13 13 13 12 12 13 13 12 12 12 12 12 12
16 16 16 16 16 16 15 15 15 15 14 13 13 13 13 13 13 13 13 13 12 12 12 12 12 12 12 12 12 12 12 12 12 12 12 12 12 11
16 16 15 15 15 15 15 15 15 15 14 14 13 13 13 13 12 12 12 12 12 12 11 11 11 11 11 11 11 11 11 11 11 11 11 11 11 11
15 15 15 15 15 15 15 15 14 14 14 14 13 12 12 12 12 12 12 11 11 11 11 11 11 11 11 11 11 11 11 11 11 10 10 10 10 10
15 15 15 15 15 14 14 14 14 14 13 13 13 12 12 12 12 11 11 11 11 11 10 10 10 10 10 10 10 10 10 10 10 10 10 10 10 10
15 14 14 14 14 14 14 14 14 13 13 13 12 12 12 11 11 11 11 11 10 10 10 10 10 10 10 10 10 9 9 9 9 9 9 9 9 9
14 14 14 14 14 14 13 13 13 13 13 13 12 12 11 11 11 11 11 10 10 10 10 10 9 9 9 9 9 9 9 9 9 8 8 8 8 8
14 14 14 13 13 13 13 13 13 12 12 12 12 12 11 11 11 11 10 10 10 10 10 9 9 9 9 9 8 8 8 8 8 8 8 8 8 8
13 13 13 13 13 13 13 12 12 12 12 12 12 11 11 11 11 11 10 10 10 9 9 9 9 9 9 8 8 8 8 8 8 8 8 7 7 7
13 13 13 13 12 12 12 12 12 11 11 11 11 11 11 10 10 10 10 10 10 9 9 9 9 8 8 8 8 8 8 8 7 7 7 7 7 7
13 12 12 12 12 12 12 12 11 11 11 11 10 10 10 10 10 10 10 10 10 9 9 9 8 8 8 8 8 8 8 7 7 7 7 7 7 7
12 12 12 12 12 11 11 11 11 11 11 10 10 10 10 10 10 10 10 10 9 9 9 9 9 8 8 8 8 8 7 7 7 7 7 7 7 6
12 12 12 11 11 11 11 11 11 10 10 10 10 10 10 10 9 9 9 9 9 9 9 9 9 8 8 8 8 8 7 7 7 7 7 7 6 6
12 11 11 11 11 11 11 10 10 10 10 10 10 10 9 9 9 9 9 9 9 9 9 9 9 8 8 8 8 8 7 7 7 7 7 7 6 6
11 11 11 11 10 10 10 10 10 10 10 10 10 9 9 9 9 9 9 9 9 9 8 8 8 8 8 8 8 8 7 7 7 7 7 6 6 6
11 11 11 10 10 10 10 10 10 10 10 9 9 9 9 9 9 9 9 9 9 8 8 8 8 8 8 8 8 7 7 7 7 7 7 6 6 6
11 11 10 10 10 10 10 10 10 9 9 9 9 9 9 9 9 9 8 8 8 8 8 8 8 8 8 8 7 7 7 7 7 7 7 6 6 6
10 10 10 10 10 10 10 9 9 9 9 9 9 9 9 9 9 8 8 8 8 8 8 8 8 8 8 7 7 7 7 7 7 7 7 6 6 6
10 10 10 10 10 10 10 9 9 9 9 9 9 9 9 9 8 8 8 8 8 8 8 8 8 8 7 7 7 7 7 7 7 7 7 7 6 6
10 10 10 10 10 10 9 9 9 9 9 9 9 9 8 8 8 8 8 8 8 8 8 8 8 7 7 7 7 7 7 7 7 7 7 6 6 6
10 10 10 10 10 10 9 9 9 9 9 9 8 8 8 8 8 8 8 8 8 7 7 7 7 7 7 7 7 7 7 7 7 7 6 6 6 6
10 10 10 10 10 9 9 9 9 9 9 8 8 8 8 8 8 8 8 7 7 7 7 7 7 7 7 7 7 7 7 6 6 6 6 6 6 6
Wind_Speed
2 2 2 1 1 1 2 3 4 2 0 1 2 2 5 7 8 9 9 10 9 8 8 8 7 7 7 7 7 7 6 5 4 4 3 2 3 3
2 3 3 2 2 2 1 1 2 3 2 1 2 2 4 6 9 10 10 12 13 11 10 10 11 11 10 10 10 10 8 7 6 5 5 5 4 4
4 4 4 3 3 3 2 2 3 4 4 2 2 3 3 4 5 8 9 10 10 13 12 12 13 13 12 12 11 11 11 10 9 8 8 8 8 7
5 5 5 4 5 3 3 3 3 3 5 5 2 2 3 3 4 5 6 8 9 12 13 13 13 13 13 13 12 12 12 11 11 11 10 10 9 9
5 5 4 5 5 4 4 4 4 5 5 6 3 2 2 3 4 4 6 6 8 10 11 12 13 13 13 13 12 12 12 12 12 11 11 11 10 10
5 5 5 5 4 4 4 4 5 5 5 6 4 3 2 2 3 4 4 3 4 6 8 9 11 12 12 12 11 11 12 12 11 11 11 10 10 10
5 5 6 7 7 5 5 4 5 5 5 5 4 3 3 2 2 2 3 3 3 3 3 4 5 6 8 8 9 9 10 10 10 10 10 9 9 9
5 5 5 7 8 8 8 8 7 6 5 4 3 4 2 2 2 3 3 2 1 1 2 2 2 2 3 4 5 7 7 8 8 7 7 7 7 7
5 5 5 6 6 5 7 9 8 7 6 6 5 4 3 3 3 3 3 2 2 1 2 1 1 1 0 1 2 4 5 5 5 6 6 6 6 6
5 5 5 5 5 5 6 6 6 5 4 4 4 3 3 3 4 4 4 3 3 2 2 2 1 0 0 1 1 1 2 3 4 5 5 5 5 5
4 4 5 5 6 8 7 7 6 5 7 8 8 7 7 7 7 5 4 4 2 1 1 2 0 1 1 1 2 1 1 0 1 2 3 3 4 3
4 4 6 5 7 7 6 6 5 3 3 5 6 6 6 5 5 5 5 4 2 0 1 2 1 1 1 2 2 2 2 3 3 3 3 2 2 1
3 2 2 5 7 7 6 4 4 3 3 4 4 4 4 3 3 3 3 5 4 1 2 2 2 1 1 1 2 2 3 3 3 4 4 4 4 2
3 1 1 5 6 6 5 6 7 6 4 4 4 3 2 2 1 3 3 3 3 3 3 3 2 2 2 1 2 2 2 3 3 3 4 5 5 5
2 3 3 5 5 5 6 7 6 4 4 3 2 1 0 0 1 3 4 5 5 4 3 2 3 2 2 2 1 1 1 2 3 3 3 3 4 3
2 3 4 5 4 3 4 4 3 3 3 2 1 0 1 2 2 2 2 2 3 3 4 3 3 3 2 1 2 1 1 2 2 2 2 3 5 6
3 3 3 3 3 3 2 2 2 2 2 1 2 2 1 1 1 1 2 2 2 0 2 3 3 2 2 3 1 2 2 2 2 2 1 2 4 6
5 3 2 2 2 1 1 1 1 1 1 1 1 1 1 1 1 1 1 1 1 1 1 1 1 3 4 3 3 3 2 2 2 2 1 2 4 5
4 2 2 2 2 2 2 2 1 1 1 1 1 1 1 1 1 1 1 1 0 1 2 1 1 2 1 3 5 3 3 2 1 2 2 3 4 5
2 3 3 3 2 2 2 2 1 1 1 1 1 1 1 1 1 1 1 2 2 1 1 1 1 2 4 4 3 4 5 4 3 2 3 2 3 5
3 3 3 3 3 3 3 3 2 1 1 1 1 1 1 1 1 2 2 2 2 2 2 3 5 4 2 1 1 4 4 6 5 4 3 1 2 2
3 4 3 3 3 3 3 3 2 2 1 1 1 1 1 2 2 2 2 2 2 3 3 3 2 0 1 1 2 4 4 4 6 6 6 6 4 4
4 4 3 3 3 3 3 3 3 2 1 1 1 0 1 1 2 2 2 2 2 2 2 1 1 1 1 2 2 3 3 3 3 3 4 8 9 11
Wind_Direction
31 28 39 30 61 152 165 166 159 160 64 49 53 40 72 78 75 77 74 76 84 85 83 82 77 74 70 68 66 66 67 67 63 58 48 47 57 54
53 51 39 27 42 54 107 141 151 158 143 75 78 89 81 82 77 81 81 76 74 78 78 78 76 73 70 66 65 65 64 67 69 69 66 67 65 60
42 55 44 40 49 46 64 82 96 119 125 92 74 80 81 84 80 79 79 77 75 78 79 78 76 74 72 70 68 65 64 63 64 68 68 64 60 59
44 50 41 52 52 48 68 81 91 102 125 119 90 80 83 104 100 91 84 81 80 76 76 75 73 72 71 69 66 63 62 61 61 62 63 61 64 64
57 56 44 57 56 53 66 77 85 96 105 122 110 91 83 96 94 87 86 81 83 79 75 73 72 72 70 69 66 64 62 62 62 61 62 62 61 62
64 62 53 57 61 68 76 79 92 95 98 108 107 100 99 104 98 96 84 62 74 80 75 75 71 68 67 68 68 67 65 63 63 63 63 64 62 62
59 59 62 63 63 72 91 96 100 103 106 110 111 101 99 113 117 117 109 89 57 72 71 66 65 61 58 62 65 68 67 66 65 64 64 66 65 63
72 56 58 51 53 62 78 88 103 121 124 119 113 123 128 130 122 128 121 103 63 348 91 70 79 60 47 61 69 71 70 66 63 62 63 63 62 59
75 64 60 51 52 63 69 70 70 86 116 135 134 144 147 158 140 128 130 123 139 198 107 68 35 58 314 47 77 77 70 65 63 60 61 58 56 54
72 76 76 52 58 77 79 70 61 55 72 101 129 138 143 150 153 153 147 113 75 51 91 98 345 339 319 326 10 67 61 58 54 53 52 50 50 52
61 64 76 69 62 79 85 81 65 45 58 76 92 97 102 114 121 108 101 102 85 325 18 101 95 17 358 312 294 273 272 312 12 17 20 23 27 35
59 48 56 72 69 77 92 98 90 70 73 69 63 68 75 88 107 126 139 130 123 237 287 95 108 88 3 304 287 272 266 270 282 298 316 331 343 7
92 59 38 66 69 72 83 99 117 112 92 86 76 61 56 55 57 84 131 142 142 193 219 135 130 117 142 283 302 270 242 253 275 285 293 300 290 251
125 125 90 75 69 67 71 82 87 86 85 81 77 64 62 49 30 51 80 115 144 176 186 146 138 159 141 131 286 298 272 254 246 266 283 302 297 275
135 131 98 77 67 62 64 74 78 83 86 88 90 70 302 241 71 53 44 54 52 52 89 110 126 138 136 163 222 267 286 284 249 256 273 272 264 257
94 91 75 67 67 57 50 62 74 101 117 124 143 28 39 58 65 68 68 49 45 2 6 52 117 132 131 158 165 222 238 255 269 257 254 267 266 255
119 79 65 61 57 44 44 47 60 83 91 93 94 76 67 74 57 61 86 85 84 352 330 344 25 78 152 161 160 248 255 268 255 245 239 280 277 264
115 102 109 125 144 149 135 83 58 91 114 119 119 131 139 141 119 65 87 113 136 236 252 285 12 24 13 333 219 206 240 251 264 256 212 232 275 277
122 139 157 178 185 185 183 178 190 223 183 148 153 170 166 161 154 160 160 136 198 248 262 257 132 121 100 301 297 243 205 247 266 271 247 225 244 264
162 177 190 195 194 192 193 193 196 193 143 164 178 190 178 163 171 198 199 193 205 226 273 287 232 200 200 218 249 279 259 215 218 243 259 267 269 282
201 204 205 203 203 195 191 186 177 181 186 178 192 204 188 165 190 214 212 213 200 204 229 252 255 245 195 107 334 302 289 275 240 219 221 245 287 301
205 208 211 206 195 184 179 176 167 167 167 172 216 218 206 189 197 208 208 213 223 225 237 259 293 28 114 196 262 275 287 307 312 299 252 227 199 220
206 204 205 202 192 179 168 165 159 165 171 172 181 219 220 223 226 219 226 226 230 241 256 279 306 299 249 232 248 271 287 297 306 319 308 304 280 268
Height
1532 1531 1531 1531 1531 1531 1531 1532 1533 1534 1535 1536 1536 1537 1536 1536 1536 1535 1535 1535 1535 1534 1533 1533 1533 1533 1532 1532 1532 1531 1531 1531 1531 1531 1531 1530 1530 1530
1531 1530 1530 1529 1529 1529 1530 1530 1531 1532 1533 1534 1535 1535 1536 1536 1535 1535 1535 1535 1534 1534 1533 1533 1532 1532 1532 1531 1530 1530 1529 1529 1529 1529 1528 1528 1528 1527
1530 1530 1529 1529 1529 1529 1528 1529 1530 1531 1531 1533 1534 1535 1536 1535 1535 1535 1535 1534 1534 1534 1533 1533 1532 1532 1531 1530 1530 1529 1528 1528 1527 1527 1526 1526 1526 1526
1530 1530 1529 1529 1528 1528 1528 1529 1529 1530 1531 1532 1533 1534 1535 1535 1535 1535 1535 1535 1534 1534 1534 1533 1533 1532 1531 1531 1530 1529 1528 1527 1527 1526 1525 1525 1524 1524
1531 1530 1530 1529 1529 1529 1528 1529 1529 1530 1531 1531 1533 1534 1535 1535 1536 1536 1536 1535 1536 1535 1535 1535 1534 1533 1532 1531 1530 1530 1529 1528 1527 1526 1525 1524 1524 1523
1531 1531 1530 1530 1530 1530 1529 1529 1530 1530 1531 1532 1533 1534 1535 1535 1536 1536 1536 1537 1537 1537 1537 1536 1536 1535 1534 1533 1532 1531 1530 1529 1528 1527 1525 1525 1524 1523
1532 1531 1531 1531 1531 1531 1531 1531 1531 1531 1531 1532 1533 1534 1534 1535 1536 1536 1537 1537 1538 1538 1538 1537 1537 1536 1535 1534 1533 1532 1531 1530 1529 1528 1526 1525 1524 1523
1533 1532 1532 1532 1532 1532 1532 1532 1532 1532 1532 1532 1533 1533 1534 1535 1536 1537 1537 1537 1538 1539 1539 1538 1538 1537 1536 1535 1534 1533 1532 1531 1530 1528 1527 1526 1525 1524
1535 1534 1534 1534 1534 1533 1533 1533 1533 1533 1534 1534 1534 1534 1535 1536 1537 1537 1538 1538 1538 1539 1539 1539 1539 1538 1538 1537 1536 1535 1534 1532 1531 1529 1528 1527 1525 1524
1536 1536 1535 1535 1535 1535 1534 1534 1534 1534 1535 1535 1535 1536 1536 1537 1538 1538 1539 1539 1540 1540 1540 1539 1539 1539 1538 1538 1537 1536 1535 1534 1532 1531 1529 1528 1526 1525
1537 1537 1537 1536 1536 1536 1536 1535 1535 1536 1536 1537 1537 1537 1538 1538 1539 1539 1539 1539 1539 1540 1540 1540 1539 1539 1539 1539 1538 1537 1536 1535 1533 1532 1530 1529 1527 1525
1538 1538 1538 1537 1537 1537 1537 1537 1537 1537 1538 1538 1538 1538 1539 1539 1539 1539 1540 1540 1540 1540 1540 1540 1539 1539 1539 1539 1538 1537 1536 1535 1534 1532 1531 1529 1528 1526
1539 1538 1538 1539 1539 1538 1538 1538 1538 1538 1539 1539 1539 1539 1539 1539 1540 1540 1540 1540 1540 1540 1540 1540 1539 1539 1539 1538 1538 1537 1536 1535 1534 1532 1531 1529 1528 1526
1540 1540 1539 1540 1540 1539 1539 1539 1540 1540 1540 1540 1540 1540 1540 1540 1540 1540 1540 1540 1540 1540 1540 1540 1539 1538 1538 1537 1537 1536 1535 1535 1534 1532 1531 1529 1528 1526
1541 1541 1541 1541 1540 1540 1540 1541 1541 1541 1541 1541 1540 1541 1541 1541 1541 1541 1541 1541 1541 1540 1540 1539 1539 1538 1537 1537 1536 1535 1534 1534 1533 1532 1530 1529 1527 1525
1541 1541 1542 1542 1542 1541 1541 1541 1542 1542 1542 1541 1541 1541 1542 1541 1541 1541 1541 1541 1540 1540 1540 1539 1539 1538 1537 1536 1536 1535 1534 1533 1532 1530 1529 1527 1526 1525
1541 1541 1541 1542 1542 1542 1542 1542 1542 1542 1542 1542 1542 1542 1541 1541 1541 1541 1540 1540 1540 1539 1539 1539 1538 1537 1537 1536 1535 1534 1533 1532 1530 1529 1527 1526 1525 1523
1541 1540 1541 1541 1541 1542 1542 1542 1542 1542 1542 1542 1541 1541 1541 1541 1540 1540 1540 1540 1539 1539 1538 1537 1537 1536 1536 1535 1534 1532 1531 1530 1529 1527 1526 1524 1523 1521
1540 1540 1540 1541 1541 1541 1541 1541 1542 1542 1541 1541 1541 1541 1540 1540 1540 1539 1539 1538 1538 1538 1537 1537 1536 1534 1533 1533 1532 1531 1530 1528 1527 1525 1524 1522 1521 1519
1538 1539 1540 1540 1540 1540 1540 1540 1541 1541 1540 1540 1540 1539 1539 1539 1538 1538 1538 1537 1536 1536 1536 1535 1534 1533 1532 1531 1530 1529 1528 1526 1525 1523 1521 1520 1519 1517
1537 1538 1538 1539 1539 1539 1539 1539 1539 1539 1539 1538 1538 1538 1537 1537 1537 1536 1536 1536 1535 1534 1533 1533 1532 1532 1531 1530 1528 1527 1526 1525 1523 1521 1519 1517 1515 1514
1535 1536 1536 1537 1537 1537 1537 1537 1537 1537 1537 1536 1536 1536 1536 1535 1535 1534 1534 1533 1533 1532 1531 1531 1530 1529 1528 1527 1525 1524 1523 1522 1520 1519 1517 1516 1513 1511
1533 1534 1534 1535 1535 1535 1535 1535 1535 1535 1534 1534 1534 1534 1533 1533 1532 1532 1531 1531 1530 1529 1528 1528 1527 1526 1525 1524 1523 1521 1520 1518 1517 1515 1514 1513 1511 1510